Regional Weather Roundup
Issued by NWS Boston, MA

Current Version | Previous Version | Text Only | Print | Product List | Glossary Off
Versions: 1 2 3 4 5 6 7 8 9 10 11 12 13 14 15 16 17 18 19 20 21 22 23 24 25 26 27 28 29 30 31 32 33 34 35 36 37 38 39 40 41 42 43 44 45 46 47 48 49 50
000 ASUS41 KBOX 232110 RWRBOX REGIONAL WEATHER ROUNDUP NATIONAL WEATHER SERVICE TAUNTON MA 500 PM EDT THU MAR 23 2017 NOTE: "FAIR" INDICATES FEW OR NO CLOUDS BELOW 12,000 FEET WITH NO SIGNIFICANT WEATHER AND/OR OBSTRUCTIONS TO VISIBILITY. MAZALL-232200- EASTERN MASSACHUSETTS CITY SKY/WX TMP DP RH WIND PRES REMARKS BOSTON MOSUNNY 37 1 22 W21G26 30.42S WCI 26 BEVERLY SUNNY 37 2 22 W18G24 30.40S WCI 27 LAWRENCE SUNNY 35 2 24 NW13G26 30.42S WCI 26 BEDFORD SUNNY 37 -1 20 NW15G26 30.41S WCI 28 BLUE HILL N/A 34 3 27 NW18G37 30.38 WCI 23 NORWOOD SUNNY 39 -1 18 NW14G24 30.43R WCI 31 MARSHFIELD SUNNY 39 0 19 VRB6G18 30.41S PLYMOUTH SUNNY 38 -1 19 NW17G24 30.41S WCI 28 TAUNTON SUNNY 39 -2 17 NW13G21 30.42S WCI 31 NEW BEDFORD SUNNY 39 0 19 W18G26 30.42S WCI 30 $$ MAZALL-232200- CAPE COD AND THE ISLANDS CITY SKY/WX TMP DP RH WIND PRES REMARKS FALMOUTH SUNNY 37 -2 18 MISG 30.42S HYANNIS SUNNY 38 1 21 NW10G21 30.39S WCI 31 CHATHAM SUNNY 36 5 27 NW10 30.42S WCI 28 PROVINCETOWN SUNNY 36 7 29 W18 30.41F WCI 26 NANTUCKET SUNNY 36 1 22 W14G21 30.43S WCI 27 MARTHAS VNYRD SUNNY 38 0 20 NW15G24 30.43S WCI 29 $$ MAZALL-232200- CENTRAL AND WESTERN MASSACHUSETTS CITY SKY/WX TMP DP RH WIND PRES REMARKS WORCESTER SUNNY 32 -1 24 W18G25 30.39R WCI 20 FITCHBURG SUNNY 36 4 26 W16 30.42S WCI 26 ORANGE SUNNY 33 1 25 W14G21 30.43S WCI 23 SPRINGFIELD MOSUNNY 38 2 22 NW14G21 30.44S WCI 30 WESTFIELD SUNNY 37 4 25 NW14 30.46S WCI 28 NORTH ADAMS SUNNY 35 3 26 W8 30.44F WCI 29 PITTSFIELD SUNNY 31 2 29 W14 30.41F WCI 21 $$ RIZALL-232200- RHODE ISLAND CITY SKY/WX TMP DP RH WIND PRES REMARKS PROVIDENCE MOSUNNY 39 -2 17 N17G24 30.44S WCI 30 NEWPORT SUNNY 39 3 22 VRB7 30.43F BLOCK ISLAND SUNNY 38 5 25 W14G23 30.46F WCI 30 SMITHFIELD SUNNY 37 1 22 W12G23 30.42S WCI 29 WESTERLY SUNNY 41 -2 16 W9G23 30.46S $$ CTZALL-232200- CONNECTICUT CITY SKY/WX TMP DP RH WIND PRES REMARKS BRADLEY INTL MOSUNNY 37 0 21 NW16 30.47F WCI 28 HARTFORD SUNNY 38 3 23 NW8 30.49S BRIDGEPORT SUNNY 43 -1 16 W15G21 30.49F DANBURY SUNNY 38 -2 18 W10 30.48F WCI 31 GROTON SUNNY 39 -1 18 W15G22 30.47S WCI 31 NEW HAVEN SUNNY 39 1 20 NW9 30.49F CHESTER FAIR 36 -6 17 NW15 30.47S WCI 26 MERIDEN SUNNY 40 0 18 NW15 30.48F WCI 32 WILLIMANTIC SUNNY 38 0 20 W12G22 30.47R WCI 30 OXFORD SUNNY 36 1 23 NW9G18 30.47F WCI 29 $$ MEZ002-015-021-024-NHZ003-005-008-011-012-014-VTZ005-008-232200- NORTHERN NEW ENGLAND CITY SKY/WX TMP DP RH WIND PRES REMARKS PORTLAND ME SUNNY 34 0 23 NW17G25 30.36R WCI 23 BANGOR ME SUNNY 27 -3 27 NW21G30 30.31R WCI 13 CONCORD NH SUNNY 35 3 26 NW17G30 30.39S WCI 25 MANCHESTER NH NOT AVBL NASHUA NH SUNNY 37 0 21 NW22G28 30.41S WCI 26 PORTSMOUTH NH SUNNY 36 1 22 W15G24 30.38R WCI 26 JAFFREY NH NOT AVBL KEENE NH NOT AVBL BURLINGTON VT MOSUNNY 33 4 29 N12 30.45F WCI 24 MT. WASHINGTON MOSUNNY 0 -9 65 W67G76 N/A WCI -35 $$ NYZ052-076-232200- EASTERN NEW YORK CITY SKY/WX TMP DP RH WIND PRES REMARKS ALBANY MOSUNNY 36 7 29 NW18 30.49F WCI 26 NEW YORK CITY MOSUNNY 44 -1 15 NW10 30.50F $$ ANZALL-232200- MARINE OBSERVATIONS STATION/POSITION TIME TEMP WIND PRES VSBY WAVE AIR SEA DIR/SP/G HT/PER (UTC) (F) (DEG/KT/KT) (MB) (MI) (FT/S) BOSTON BUOY 1950 35 40 280/ 16/ 17 1029.5 3/ 4 BUZZARDS BAY 2000 35 310/ 17/ 19 1031.5F NANTUCKET SOUND 2050 39 1029.7F 2/ 4 MASS BAY-STELLWA 2004 35 39 310/ 17/ 19 1028.4R 3/ 4 ISLE OF SHOALS 2000 33 290/ 25/ 28 1028.0F S OF BLOCK IS 2055 40 N/A 4/ 5 $$ ......................KEY......................... SKY/WX - SKY CONDITION/PRESENT WEATHER TMP - TEMPERATURE IN FAHRENHEIT DWPT - DEWPOINT IN FAHRENHEIT RH - RELATIVE HUMIDITY IN PERCENT WIND - DIRECTION AND SPEED IN MPH PRES - MEAN SEA LEVEL PRESSURE IN INCHES OF HG WCI - WIND CHILL INDEX VSB - VISIBILITY IN MILES HX - HEAT INDEX TC - TEMPERATURE IN CELSIUS VRB - VARIABLE WIND DIRECTION N/A - NOT AVAILABLE

USA.gov is the U.S. government's official web portal to all federal, state and local government web resources and services.